Back to catalog

STARLINK-31661

AliveCommunicationsVLEO
NORAD 59735·PAYLOAD·🇺🇸 United States

Launched May 13, 2024 from Cape Canaveral Space Force Station

Loading…

Next Passes (next 24 hours)

TLE

FreshSource: CelesTrak SupGP

Epoch: Sep 14, 2026, 22:13 UTC

1 59735C 24090F   26257.92618056 -.00003954  00000+0 -14311-3 0  2575
2 59735  43.0028 187.7450 0001125 267.8929  63.2596 15.27607265    15

Track STARLINK-31661 in real time with AllMySat

Download on the App Store